[[{"header":{"parameterUnit":"m.s-1","parameterCategory":1,"la1":30.2991,"la2":30.254,"lo1":-89.0895,"lo2":-89.0444,"dy":0.0017,"dx":0.0017,"nx":28,"ny":28,"refTime":"2023-09-18T09:00:00:Z","depth":0,"parameterNumber":2,"parameterNumberName":"U-component_of_WINDS"},"data":[0,0,0,0,0,0,0,0,0,0,0,0,0,0,0,0,0,0,0,0,0,0,0,0,0,0,0,0,0,0,0,0,0,0,0,0,0,0,0,0,0,0,0,0,0,0,0,0,0,0,0,0,0,0,0,0,0,0,0.9048,0.9049,0,0.9111,0.9112,0.9113,0.9158,0.9158,0.9159,0.9159,0.9225,0.9226,0.9228,0,0,0,0,0,0,0,0,0,0,0,0,0,0.8967,0.8969,0.9048,0.9049,0.905,0.9111,0.9112,0.9113,0.9158,0.9158,0.9159,0.9159,0.9225,0.9226,0.9228,0,0,0,0,0,0,0,0,0,0,0,0,0,0.9014,0.8969,0.9048,0.908,0.9083,0.9111,0.9112,0.9113,0.9158,0.9158,0.9159,0.916,0.9224,0.9226,0.9228,0.923,0,0,0.9235,0.9236,0,0,0,0,0,0,0,0,0.9011,0.9017,0.9074,0.9077,0.9081,0.9127,0.9108,0.9153,0.9158,0.913,0.9159,0.916,0.9192,0.9197,0.9208,0.9233,0.9236,0.9235,0.9236,0.9237,0.9238,0,0,0,0,0,0,0,0.9008,0.9014,0.9073,0.9075,0.9079,0.9091,0.9098,0.9117,0.9157,0.9132,0.9135,0.9142,0.9194,0.9205,0.9209,0.9237,0.9235,0.9237,0.9238,0.9239,0.9267,0.9266,0,0,0,0,0,0,0.9,0.9011,0.9071,0.9075,0.9047,0.9092,0.91,0.9112,0.9157,0.9164,0.9142,0.9144,0.9202,0.9207,0.9212,0.9216,0.9237,0.9239,0.924,0.9267,0.9267,0.9266,0,0,0,0,0,0,0.8998,0.9004,0.9069,0.9044,0.9053,0.9093,0.9106,0.9113,0.9124,0.9164,0.9172,0.9146,0.9202,0.9209,0.9225,0.9219,0.924,0.9242,0.9268,0.9267,0.9266,0.9225,0,0,0,0,0,0,0.8995,0.9003,0.9004,0.9044,0.9054,0.908,0.9106,0.9114,0.9128,0.9131,0.917,0.9177,0.9203,0.9222,0.9227,0.9222,0.9243,0.9269,0.9268,0.9267,0.9227,0.9223,0.922,0,0,0,0,0,0.8992,0.8991,0.9004,0.9011,0.9056,0.908,0.9086,0.9116,0.9127,0.9128,0.9154,0.9176,0.9219,0.9223,0.923,0.9225,0.9269,0.9268,0.9267,0.9229,0.9224,0.922,0,0,0,0,0,0,0.895,0.8996,0.9012,0.9023,0.9047,0.9087,0.909,0.911,0.9131,0.9134,0.9171,0.9179,0.9191,0.921,0.9213,0.9229,0.9247,0.9247,0.9216,0.9211,0.9208,0.9202,0.9245,0,0,0,0,0,0.8942,0.8957,0.8997,0.9003,0.9014,0.905,0.9061,0.9082,0.9109,0.9119,0.9146,0.9171,0.9191,0.9202,0.9223,0.9231,0.9239,0.9232,0.9228,0.9224,0.9223,0.9228,0.9225,0.9262,0.9262,0.9262,0,0,0.8925,0.8953,0.896,0.8995,0.9016,0.9031,0.9058,0.9073,0.9084,0.9122,0.9138,0.9158,0.9189,0.9201,0.9207,0.9217,0.9215,0.9223,0.922,0.9221,0.9226,0.9223,0.922,0.9262,0.9262,0.9262,0,0,0.8902,0.8925,0.8932,0.8952,0.8984,0.9007,0.9009,0.9046,0.9061,0.9078,0.9107,0.9121,0.9154,0.9174,0.9189,0.9173,0.9194,0.9179,0.9159,0.9163,0.916,0.9157,0.915,0.9148,0.9179,0.9179,0.9179,0,0.8877,0.89,0.8933,0.8945,0.896,0.8995,0.9002,0.9021,0.9057,0.9066,0.9077,0.9118,0.9141,0.9158,0.9154,0.9165,0.9168,0.9174,0.9158,0.9155,0.9154,0.9147,0.9145,0.9176,0.9177,0.9177,0.9177,0,0.8868,0.8883,0.8885,0.8919,0.8934,0.8944,0.8978,0.8989,0.9009,0.9032,0.9048,0.9078,0.9104,0.911,0.913,0.9129,0.9134,0.9151,0.9169,0.9147,0.9142,0.914,0.9173,0.9174,0.9175,0.9175,0,0,0.8818,0.887,0.887,0.8885,0.8923,0.8935,0.8947,0.8972,0.898,0.9005,0.9015,0.9042,0.9058,0.9074,0.9097,0.9101,0.9085,0.9117,0.9119,0.9109,0.9085,0.907,0.9067,0.91,0.91,0.9099,0.9081,0,0.88,0.8821,0.8851,0.8863,0.8877,0.8911,0.8921,0.8945,0.8967,0.8982,0.9007,0.9025,0.9045,0.9055,0.906,0.9086,0.9081,0.9088,0.9109,0.9109,0.9098,0.9064,0.9049,0.903,0.908,0.9079,0.9079,0,0.878,0.8802,0.8814,0.885,0.8857,0.8866,0.8891,0.8905,0.8934,0.8949,0.8967,0.8992,0.9006,0.9024,0.9043,0.9047,0.9058,0.9072,0.9072,0.9073,0.9091,0.9063,0.9025,0.9022,0.9077,0.9077,0.9077,0,0.874,0.8773,0.8785,0.8797,0.8839,0.8844,0.8862,0.8891,0.8904,0.8927,0.8935,0.8959,0.8972,0.899,0.9021,0.9031,0.9036,0.9056,0.9048,0.9047,0.9046,0.9045,0.9008,0.9056,0.9056,0.9057,0.9057,0,0.8715,0.8721,0.8767,0.8774,0.8782,0.8817,0.8823,0.8845,0.887,0.8882,0.8914,0.8924,0.8965,0.898,0.9004,0.9015,0.9021,0.9034,0.904,0.903,0.9028,0.9035,0.9037,0.9056,0.9056,0.9056,0.9056,0,0.867,0.8702,0.8716,0.8756,0.8766,0.8769,0.8803,0.8811,0.8835,0.8849,0.8855,0.8893,0.8912,0.8945,0.8974,0.899,0.8996,0.9008,0.8986,0.8989,0.8979,0.8978,0.8943,0.8939,0.8992,0.8992,0.8991,0,0.8651,0.8656,0.8696,0.8706,0.8722,0.8738,0.8751,0.8787,0.8799,0.8832,0.8835,0.8857,0.8876,0.8906,0.8936,0.8958,0.8969,0.8955,0.8973,0.8962,0.8966,0.8965,0.8965,0.895,0.895,0.8949,0.8949,0,0.8612,0.8628,0.8645,0.8668,0.8683,0.8703,0.8725,0.8732,0.8772,0.8784,0.8804,0.8819,0.8849,0.8869,0.8896,0.8915,0.8938,0.8943,0.8942,0.8931,0.8917,0.8922,0.8973,0.8943,0.8944,0.8944,0.8945,0.8945,0.8578,0.8584,0.8613,0.8631,0.8652,0.8671,0.868,0.8705,0.8722,0.8748,0.8769,0.8787,0.8815,0.8853,0.8871,0.8886,0.8896,0.8895,0.8895,0.8893,0.8888,0.8917,0.8891,0.8891,0.8891,0.8892,0.8892,0,0.854,0.856,0.8577,0.8606,0.862,0.8642,0.8667,0.8677,0.8693,0.8717,0.8735,0.8758,0.8778,0.881,0.8833,0.8839,0.885,0.8843,0.8842,0.8846,0.8879,0.8876,0.8834,0.8834,0.8834,0.8834,0.8834,0.8834,0.8521,0.8531,0.855,0.8571,0.8591,0.8609,0.8621,0.8639,0.8659,0.8682,0.8699,0.872,0.8747,0.8773,0.8792,0.8801,0.8807,0.8797,0.8809,0.8838,0.8843,0.8849,0.8846,0.8798,0.8798,0.8774,0.8774,0.8774]},{"header":{"parameterUnit":"m.s-1","parameterCategory":1,"la1":30.2991,"la2":30.254,"lo1":-89.0895,"lo2":-89.0444,"dy":0.0017,"dx":0.0017,"nx":28,"ny":28,"refTime":"2023-09-18T09:00:00:Z","depth":0,"parameterNumber":3,"parameterNumberName":"V-component_of_WINDS"},"data":[0,0,0,0,0,0,0,0,0,0,0,0,0,0,0,0,0,0,0,0,0,0,0,0,0,0,0,0,0,0,0,0,0,0,0,0,0,0,0,0,0,0,0,0,0,0,0,0,0,0,0,0,0,0,0,0,0,0,0.6385,0.6384,0,0.626,0.6259,0.6257,0.6108,0.6105,0.6103,0.6101,0.5973,0.5972,0.5971,0,0,0,0,0,0,0,0,0,0,0,0,0,0.6492,0.6491,0.6385,0.6384,0.6382,0.6261,0.6259,0.6257,0.6108,0.6105,0.6102,0.61,0.5974,0.5972,0.5971,0,0,0,0,0,0,0,0,0,0,0,0,0,0.6415,0.6491,0.6385,0.6293,0.6283,0.6261,0.6259,0.6257,0.6109,0.6105,0.6102,0.6098,0.5974,0.5972,0.597,0.6029,0,0,0.5965,0.5964,0,0,0,0,0,0,0,0,0.6419,0.6411,0.6308,0.6299,0.6289,0.6196,0.625,0.618,0.611,0.6175,0.6101,0.6097,0.605,0.6042,0.6026,0.6023,0.6017,0.5965,0.5964,0.5963,0.5962,0,0,0,0,0,0,0,0.6425,0.6415,0.6336,0.6307,0.6295,0.6257,0.6242,0.6236,0.6134,0.6169,0.6158,0.6145,0.6044,0.6028,0.6022,0.6015,0.5965,0.5963,0.5962,0.5961,0.6049,0.6052,0,0,0,0,0,0,0.6444,0.6421,0.634,0.6332,0.6347,0.6258,0.6241,0.6229,0.6133,0.6115,0.6148,0.6139,0.6033,0.6024,0.6017,0.6075,0.5963,0.5961,0.596,0.6045,0.6049,0.6053,0,0,0,0,0,0,0.6447,0.6438,0.6345,0.6373,0.6358,0.626,0.6247,0.6229,0.6212,0.6118,0.6099,0.6151,0.603,0.602,0.6026,0.6069,0.596,0.5958,0.6041,0.6046,0.6051,0.6195,0,0,0,0,0,0,0.6451,0.644,0.6462,0.6375,0.6358,0.6357,0.625,0.6229,0.621,0.6196,0.6115,0.6098,0.6026,0.6029,0.6024,0.6064,0.5957,0.6037,0.6044,0.605,0.6185,0.6204,0.622,0,0,0,0,0,0.6455,0.6508,0.6464,0.6455,0.6383,0.636,0.635,0.6266,0.6214,0.6234,0.6172,0.6101,0.6066,0.6031,0.6024,0.6064,0.6034,0.6042,0.6049,0.6178,0.62,0.6219,0,0,0,0,0,0,0.6604,0.6495,0.6445,0.6471,0.6426,0.6334,0.6357,0.6293,0.6261,0.625,0.6147,0.613,0.6148,0.6107,0.6071,0.6113,0.6039,0.6046,0.6139,0.616,0.6177,0.6185,0.5955,0,0,0,0,0,0.664,0.663,0.6536,0.6568,0.6548,0.6457,0.6444,0.6384,0.6332,0.6312,0.6251,0.6204,0.6181,0.6168,0.6143,0.618,0.6157,0.6203,0.6221,0.6235,0.6241,0.6253,0.6271,0.6078,0.6078,0.6078,0,0,0.6713,0.6653,0.6654,0.6597,0.6554,0.6545,0.6442,0.6438,0.643,0.6311,0.6312,0.6266,0.6206,0.6227,0.6233,0.6193,0.629,0.6245,0.6257,0.6255,0.6263,0.6281,0.6297,0.6084,0.6083,0.6082,0,0,0.6843,0.6798,0.6818,0.6777,0.6713,0.6652,0.6658,0.6575,0.654,0.6539,0.6449,0.6438,0.6403,0.6362,0.6337,0.6449,0.638,0.6444,0.6533,0.6545,0.6561,0.6573,0.661,0.6624,0.6451,0.6451,0.6452,0,0.6942,0.6926,0.6837,0.6837,0.6813,0.6705,0.6723,0.6688,0.6621,0.6606,0.6563,0.6513,0.6466,0.6473,0.65,0.6485,0.6485,0.6452,0.6566,0.6578,0.6588,0.6622,0.6636,0.6459,0.6458,0.6458,0.6457,0,0.705,0.704,0.7064,0.6999,0.6979,0.6989,0.6899,0.6889,0.683,0.6774,0.6773,0.6712,0.667,0.6668,0.6611,0.6667,0.6643,0.6585,0.6507,0.6616,0.6645,0.6658,0.647,0.6468,0.6465,0.6463,0,0,0.7268,0.7153,0.7163,0.7131,0.7052,0.7042,0.7047,0.7005,0.6997,0.6954,0.6952,0.6924,0.6868,0.684,0.6778,0.679,0.6877,0.6728,0.6725,0.6755,0.693,0.6972,0.6989,0.6832,0.6834,0.6836,0.6933,0,0.738,0.738,0.7299,0.7321,0.7309,0.7206,0.7209,0.716,0.7107,0.7088,0.7029,0.7009,0.6939,0.6921,0.6928,0.6865,0.691,0.6857,0.6827,0.6827,0.6842,0.7004,0.705,0.7144,0.6945,0.6947,0.6948,0,0.7511,0.7473,0.7495,0.7412,0.7404,0.7408,0.7362,0.7347,0.7289,0.7249,0.7217,0.7145,0.7141,0.707,0.7061,0.7027,0.701,0.6977,0.6979,0.697,0.6892,0.6997,0.7173,0.7186,0.6966,0.6965,0.6963,0,0.7663,0.7619,0.7624,0.7601,0.7506,0.7511,0.7472,0.741,0.739,0.735,0.7334,0.7295,0.7273,0.7243,0.7162,0.7119,0.7162,0.7085,0.7126,0.7128,0.7137,0.7137,0.731,0.7133,0.7133,0.7132,0.7132,0,0.7795,0.7811,0.7691,0.7694,0.7708,0.7615,0.7631,0.7581,0.7527,0.7518,0.7427,0.742,0.7314,0.7295,0.7232,0.7232,0.7223,0.7189,0.7171,0.7195,0.7199,0.718,0.717,0.7136,0.7135,0.7134,0.7134,0,0.7966,0.7887,0.7886,0.7796,0.7774,0.7788,0.771,0.7708,0.7649,0.7638,0.763,0.7537,0.7509,0.7426,0.7377,0.7334,0.7351,0.7321,0.7371,0.7359,0.7403,0.7399,0.7567,0.7583,0.74,0.7402,0.7404,0,0.8054,0.8063,0.7974,0.7961,0.7925,0.7906,0.7884,0.7793,0.7773,0.7706,0.7712,0.7677,0.7643,0.7603,0.753,0.7491,0.7456,0.7518,0.745,0.7472,0.7452,0.7451,0.745,0.7532,0.7534,0.7536,0.7538,0,0.8216,0.8176,0.8148,0.8106,0.8083,0.8045,0.8003,0.7997,0.7894,0.7876,0.7846,0.782,0.7769,0.7734,0.7683,0.7641,0.7571,0.7561,0.7567,0.759,0.7617,0.7599,0.7407,0.7556,0.7555,0.7553,0.7552,0.7551,0.8345,0.8347,0.8284,0.8255,0.8214,0.8175,0.8168,0.8108,0.8082,0.8033,0.798,0.7955,0.7894,0.7818,0.7781,0.7758,0.7722,0.7733,0.7735,0.7738,0.7747,0.7624,0.775,0.7749,0.7748,0.7748,0.7747,0,0.8499,0.8453,0.8428,0.837,0.8347,0.8285,0.8234,0.8218,0.8198,0.8147,0.8115,0.8079,0.8044,0.7968,0.7925,0.7922,0.7888,0.7913,0.7911,0.7901,0.7785,0.7781,0.7941,0.7941,0.794,0.794,0.794,0.794,0.8576,0.8575,0.8528,0.8505,0.8458,0.8433,0.8409,0.8372,0.833,0.8294,0.8264,0.8216,0.8153,0.8105,0.8069,0.8047,0.8034,0.8069,0.8037,0.7928,0.791,0.7892,0.7888,0.8068,0.8068,0.8154,0.8155,0.8155]}]]